Weather History for KCNY - April, 2013

Change the Weather History Date:

Thursday, April 11, 2013

  Actual Average Record
Temperature  
Mean Temperature 47 °F 51 °F  
Max Temperature 62 °F 66 °F 89 °F (1934)
Min Temperature 32 °F 37 °F 20 °F (1929)
Degree Days  
Heating Degree Days 18 14  
Month to date heating degree days 160 166  
Since 1 July heating degree days 5668 5214  
Cooling Degree Days 0 0  
Month to date cooling degree days 0 0  
Year to date cooling degree days 0 0  
Moisture  
Dew Point 31 °F    
Average Humidity 60    
Maximum Humidity 92    
Minimum Humidity 27    
Precipitation  
Precipitation 0.01 in 0.02 in 0.90 in (1966)
Month to date precipitation 0.14 0.22  
Year to date precipitation 0.83 2.15  
Sea Level Pressure  
Sea Level Pressure 29.91 in    
Wind  
Wind Speed 5 mph (ESE)    
Max Wind Speed 14 mph    
Max Gust Speed 17 mph    
Visibility 10 miles    
Events Rain    
T = Trace of Precipitation, MM = Missing Value Source: NWS Daily Summary

Daily Weather History Graph

Daily Weather History Graph

Search for Another Location

Airport or City:

Trip Planner

Search our weather history database for the weather conditions in past years. The results will help you decide how hot, cold, wet, or windy it might be!

Date:

Astronomy

Apr. 11, 2013 Rise Set
Actual Time 6:48 AM MDT 7:52 PM MDT
Civil Twilight 6:20 AM MDT 8:19 PM MDT
Nautical Twilight 5:48 AM MDT 8:52 PM MDT
Astronomical Twilight 5:14 AM MDT 9:26 PM MDT
Moon 7:22 AM MDT (4/11) 9:28 PM MDT (4/11)
Length of Visible Light 13h 58m
Length of Day
13h 04m
New Moon, 2% of the Moon is Illuminated
Apr 11
New Moon
Apr 18
First Quarter
Apr 25
Full
May 2
Last Quarter
May 9
New

Hourly Weather History & Observations

Time (MDT) Temp. Windchill Dew Point Humidity Pressure Visibility Wind Dir Wind Speed Gust Speed Precip Events Conditions
12:53 AM 35.1 °F - 18.0 °F 50% 29.99 in 10.0 mi Calm Calm - N/A   Clear
1:53 AM 32.0 °F - 19.0 °F 59% 29.99 in 10.0 mi Calm Calm - N/A   Clear
2:53 AM 35.1 °F - 21.0 °F 57% 29.94 in 10.0 mi Calm Calm - N/A   Clear
3:53 AM 36.0 °F - 21.9 °F 57% 29.94 in 10.0 mi Calm Calm - N/A   Mostly Cloudy
4:53 AM 37.0 °F 34.5 °F 24.1 °F 59% 29.93 in 10.0 mi WSW 3.5 mph - N/A   Overcast
5:53 AM 39.0 °F 34.8 °F 28.0 °F 65% 29.94 in 10.0 mi East 5.8 mph - 0.00 in Rain Light Rain
6:53 AM 35.1 °F 27.9 °F 32.0 °F 89% 29.96 in 10.0 mi East 9.2 mph - 0.00 in   Overcast
7:53 AM 35.1 °F 29.3 °F 33.1 °F 92% 29.98 in 10.0 mi ESE 6.9 mph - 0.01 in Rain Light Rain
8:53 AM 37.4 °F 31.4 °F 35.6 °F 93% 29.97 in 10.0 mi ESE 8.1 mph - N/A   Mostly Cloudy
9:22 AM 39.2 °F 33.0 °F 35.6 °F 87% 29.98 in 10.0 mi East 9.2 mph - N/A   Overcast
9:29 AM 39.2 °F 33.6 °F 35.6 °F 87% 29.97 in 10.0 mi East 8.1 mph - N/A   Mostly Cloudy
9:40 AM 39.2 °F 33.6 °F 35.6 °F 87% 29.97 in 10.0 mi East 8.1 mph - N/A   Mostly Cloudy
9:53 AM 39.9 °F 35.8 °F 37.0 °F 89% 29.97 in 10.0 mi Variable 5.8 mph - N/A   Mostly Cloudy
10:53 AM 42.8 °F 39.3 °F 37.4 °F 81% 29.97 in 10.0 mi SSE 5.8 mph - N/A   Mostly Cloudy
11:23 AM 44.6 °F - 37.4 °F 76% 29.97 in 10.0 mi Calm Calm - N/A   Mostly Cloudy
11:53 AM 46.0 °F 43.1 °F 36.0 °F 68% 29.97 in 10.0 mi East 5.8 mph - N/A   Overcast
12:41 PM 48.2 °F - 37.4 °F 66% 29.94 in 10.0 mi ESE 8.1 mph - N/A   Mostly Cloudy
12:53 PM 48.9 °F - 37.0 °F 64% 29.94 in 10.0 mi SE 8.1 mph - N/A   Mostly Cloudy
1:53 PM 53.1 °F - 36.0 °F 52% 29.91 in 10.0 mi Variable 4.6 mph - N/A   Clear
2:53 PM 55.0 °F - 35.1 °F 47% 29.87 in 10.0 mi Calm Calm - N/A   Partly Cloudy
3:53 PM 57.9 °F - 32.0 °F 37% 29.82 in 10.0 mi WNW 5.8 mph - N/A   Clear
4:53 PM 60.1 °F - 28.9 °F 31% 29.78 in 10.0 mi West 8.1 mph - N/A   Clear
5:53 PM 60.1 °F - 28.0 °F 30% 29.77 in 10.0 mi SW 8.1 mph - N/A   Clear
6:53 PM 60.1 °F - 26.1 °F 27% 29.77 in 10.0 mi NW 6.9 mph - N/A   Clear
7:53 PM 55.0 °F - 27.0 °F 34% 29.78 in 10.0 mi WNW 4.6 mph - N/A   Clear
8:53 PM 50.0 °F - 33.1 °F 52% 29.81 in 10.0 mi NNE 6.9 mph - N/A   Clear
9:53 PM 46.9 °F - 33.1 °F 59% 29.82 in 10.0 mi Calm Calm - N/A   Clear
10:53 PM 46.9 °F - 33.1 °F 59% 29.83 in 10.0 mi West 3.5 mph - N/A   Mostly Cloudy
11:53 PM 46.9 °F - 34.0 °F 61% 29.83 in 10.0 mi NW 9.2 mph - N/A   Overcast